Location: McGregor
(26.5609°N, 81.9145°W)
Time: 03:46:48
(UTC+00:00)

Daily predictions for brighter satellites

Satellite Brightness Start Highest point End
(mag) Time Altitude Azimuth Time Altitude Azimuth Time Altitude Azimuth
CZ-4 R/B 2.1 00:35:37 10° S 00:39:41 61° W 00:43:49 10° NNW
Cosmos 1825 Rocket 4.4 00:36:18 10° SSE 00:40:07 30° E 00:43:55 10° NNE
CENTAUR R/B 4.2 00:35:08 10° N 00:42:27 30° NE 00:49:59 10° ESE
YAOGAN 1 3.1 00:39:09 10° S 00:43:25 63° W 00:47:42 10° NNW
Cosmos 1816 Rocket 4.5 00:40:22 10° S 00:46:30 80° E 00:52:44 10° N
USA 267 4.4 00:42:28 10° E 00:46:54 19° ESE 00:51:19 10° SSE
In-Cosmos 22 Rocket 4.4 00:42:13 10° SSE 00:47:13 43° E 00:52:12 10° NNE
Cosmos-2242 4.3 00:44:24 10° NNE 00:47:42 22° E 00:50:59 10° SE
Meteor 1-4 Rocket 4.5 00:46:31 10° NNW 00:49:48 33° W 00:53:07 10° SSW
Cosmos 44 Rocket 4.2 00:47:00 10° SSE 00:51:18 28° ESE 00:55:41 10° NE
CSL-04 Rocket 3.8 00:47:48 10° SSE 00:53:14 64° ENE 00:58:37 10° N
Cosmos 1464 Rocket 4.1 00:48:39 10° N 00:54:57 83° W 01:01:07 10° S
Helios 1A Rocket 3.7 01:00:56 10° SE 01:04:27 33° ENE 01:08:06 10° N
SEDSat Delta rocket 2.8 01:00:39 10° WSW 01:04:42 83° NNW 01:08:48 10° ENE
ERS-2 2.9 01:06:34 10° NE 01:09:49 31° E 01:13:03 10° SSE
Tsikada Rocket 4.1 01:04:56 10° S 01:11:05 79° W 01:17:18 10° N
Star 37E S/N 40062 2.8 01:09:37 10° WNW 01:11:41 50° N 01:12:43 20° ENE
MetOp-A 4.1 01:07:34 10° SSE 01:12:55 88° E 01:18:18 10° NNW
BREEZE-M DEB (TANK) 2.3 01:13:01 10° WSW 01:15:14 60° NW 01:19:30 10° NE
Cosmos 2082 Rocket 2.8 01:19:14 10° SSE 01:24:10 33° ESE 01:29:07 10° NE
Cosmos 1833 Rocket 2.6 01:22:14 10° SSW 01:27:52 87° ESE 01:33:30 10° NNE
Cosmos 1953 Rocket 3.5 01:24:13 10° S 01:28:40 81° E 01:33:11 10° N
Hubble Space Telescope 0.7 01:24:59 10° WSW 01:29:06 89° NNW 01:31:56 19° ENE
Cosmos 1892 3.9 01:26:38 10° SSW 01:30:15 43° W 01:33:53 10° N
USA 186 2.8 01:29:55 10° S 01:33:09 46° W 01:36:16 10° NNW
Cosmos 773 Rocket 4.3 01:28:18 10° S 01:33:14 43° E 01:38:08 10° NNE
Resurs 1-3 3.9 01:33:31 26° SE 01:35:36 47° ENE 01:39:48 10° N
USA 305 4.4 01:32:54 10° N 01:36:14 22° NE 01:37:38 19° ENE
Cosmos 2150 Rocket 4.1 01:34:47 10° N 01:40:10 65° ENE 01:43:15 26° SSE
GPS 2-12 Rocket1 3.9 01:38:47 10° WSW 01:43:06 34° S 01:44:16 30° SSE
Cosmos 2298 Rocket 3.9 01:39:15 10° NNW 01:44:35 79° ENE 01:47:38 26° SSE
Cosmos 1125 Rocket 3.6 01:40:50 10° N 01:46:05 60° ENE 01:48:24 32° SE
NOSS 3-2 (A) 4.3 01:39:24 10° NNW 01:47:36 83° WSW 01:54:06 21° SSE
Cosmos 2279 Rocket 4.2 01:44:31 10° N 01:50:28 48° E 01:52:57 32° SE
COSMOS 2406 3.7 01:45:28 10° SSW 01:51:03 62° WNW 01:56:40 10° N
Cosmos 2058 2.8 01:48:48 24° S 01:51:16 83° E 01:55:26 10° N
Cosmos 1825 2.9 01:49:03 10° SSW 01:52:41 52° W 01:56:20 10° N
Cosmos 1869 3.6 01:51:20 10° NNW 01:55:08 62° W 01:56:56 29° SSW
OBJECT-B 3.0 01:54:46 12° SSW 01:57:05 23° W 01:59:42 10° NW
GOES 2 Rocket 4.4 01:54:07 10° W 01:59:08 43° SSW 02:01:13 33° SSE
SJ-6B 4.2 01:57:02 15° SSW 01:59:40 33° W 02:03:04 10° NNW
USA 306 3.6 01:56:26 10° NNW 02:00:24 38° NE 02:00:51 37° ENE
Cosmos 1076 Rocket 4.2 02:02:52 36° ENE 02:02:52 36° ENE 02:06:08 10° NNE
ATLAS 2AS CENTAUR R/B 3.6 01:55:18 10° SW 02:02:59 58° WNW 02:10:44 10° NNE
Atlas Centaur 2 0.9 02:00:31 10° WSW 02:04:29 88° NNW 02:04:35 84° NE
FUSE 4.2 02:02:41 10° WSW 02:07:46 46° SSE 02:07:48 46° SSE
USA 32 4.4 02:03:07 10° N 02:08:17 61° W 02:11:42 21° SSW
Resurs 01 Rocket 1.5 02:08:50 62° ESE 02:09:09 65° ENE 02:13:32 10° N
Centaur D-1AR AC-39 2.2 02:04:42 10° WSW 02:09:08 39° SSW 02:09:08 39° SSW
Nadezhda 4 Rocket 4.0 02:07:56 42° SE 02:09:39 55° E 02:15:39 10° NNE
Cosmos 1656 3.5 02:04:30 10° NNW 02:10:07 78° ENE 02:11:34 50° SE
ATLAS 2A CENTAUR R/B 3.9 01:34:01 10° WNW 02:11:34 64° SSW 02:16:04 36° SE
Cosmos 1980 Rocket 3.9 02:08:42 10° NNE 02:12:06 17° ENE 02:12:06 17° ENE
Cosmos 1538 Rocket 4.2 02:13:44 49° E 02:13:44 49° E 02:18:22 10° NNE
Cosmos 1437 Rocket 3.4 02:09:40 10° NNW 02:13:25 52° W 02:14:11 44° SW
NOSS 3-2 (C) 4.2 02:06:28 10° NNW 02:14:41 89° ENE 02:18:50 36° SSE
Cosmos 2142 Rocket 4.5 02:09:24 10° N 02:15:47 88° W 02:18:43 35° S
RESURS DK-1 2.7 02:17:56 39° SW 02:19:18 65° WNW 02:23:25 10° NNE
Cosmos 1633 4.1 02:29:09 31° N 02:29:09 31° N 02:31:10 10° N
SPOT 1/Viking Rocket 3.7 02:28:26 56° ENE 02:28:26 56° ENE 02:33:15 10° N
MetOp-B 4.0 02:28:46 67° E 02:28:56 68° ENE 02:34:15 10° N
Meteosat 1 Rocket2 4.4 02:19:32 10° WSW 02:30:00 82° SSE 02:32:42 44° E
USA 267 3.3 02:23:33 10° NE 02:30:05 77° NW 02:36:37 10° SW
ATLAS 3B R/B 4.4 02:26:39 10° N 02:31:23 18° NE 02:32:46 17° ENE
CENTAUR R/B 3.7 02:25:04 10° NW 02:33:34 59° WSW 02:37:50 32° S
Sakura Rocket 4.0 02:26:05 10° W 02:34:20 81° N 02:35:43 58° E
ARIANE 5 R/B 4.4 02:38:33 22° NNE 02:38:33 22° NNE 02:40:36 10° NNE
Skynet4D Del rocket 4.3 02:30:41 10° W 02:38:51 70° SSW 02:40:07 60° SSE
Cosmos 2360 4.4 02:33:44 10° N 02:38:56 55° NE 02:38:56 55° NE
Ariane Rocket 4.3 02:37:32 27° SW 02:39:19 35° W 02:43:56 10° NNW
Meteor 2-8 Rocket 4.4 02:40:30 10° N 02:46:14 65° ENE 02:46:14 65° ENE
ATLAS 2A CENTAUR R/B 3.3 02:34:12 10° W 02:49:03 89° N 02:49:13 85° ENE
Centaur AC-125 4.1 02:14:28 10° WSW 02:50:04 78° S 02:51:39 59° ESE
SEDSat Delta rocket 4.4 02:47:02 10° WNW 02:49:48 34° NW 02:49:48 34° NW
OAO 2 Rocket 4.3 02:49:06 10° WNW 02:53:28 40° N 02:53:28 40° N
Cosmos 2221 3.9 02:53:04 10° NNW 02:56:12 36° WNW 02:56:12 36° WNW
Terra 3.8 03:04:43 20° NNE 03:04:43 20° NNE 03:06:24 10° N
Cosmos 2082 Rocket 4.3 03:03:47 10° WSW 03:08:10 23° WNW 03:12:36 10° NNW
Cosmos 1697 Rocket 3.2 03:04:44 10° NNW 03:09:29 55° WNW 03:09:29 55° WNW
Hubble Space Telescope 3.4 03:06:18 10° W 03:07:15 16° W 03:07:15 16° W
BREEZE-M R/B 4.0 03:09:32 10° WSW 03:17:13 44° NW 03:17:23 44° NW
Centaur D AC-29 4.1 03:31:14 10° W 03:35:12 16° WSW 03:35:12 16° WSW
Cosmos 1980 Rocket 3.9 03:51:00 10° NNW 03:53:53 29° NW 03:53:53 29° NW
Cosmos 2322 Rocket 4.4 03:59:14 10° N 04:00:59 18° NNE 04:00:59 18° NNE
ATLAS 3B R/B 3.7 04:15:22 10° NNW 04:20:00 43° NW 04:20:00 43° NW
SL-16 R/B 4.3 04:23:39 10° NNW 04:25:32 22° NNW 04:25:32 22° NNW
ATLAS 5 CENTAUR R/B 4.1 06:51:30 10° NNW 06:54:21 29° N 06:54:21 29° N
SL-16 R/B 3.8 07:00:09 36° NNE 07:00:09 36° NNE 07:04:11 10° N
Resurs 1-4 Rocket 4.2 07:01:35 10° N 07:03:26 22° N 07:03:26 22° N
Cosmos 2227 Rocket 4.4 07:29:32 16° NNW 07:29:32 16° NNW 07:31:15 10° NNW
ADEOS Rocket 3.9 07:29:11 40° NNE 07:29:11 40° NNE 07:32:46 10° N
Cosmos 2237 Rocket 4.4 07:25:13 10° NNW 07:26:22 16° NNW 07:26:22 16° NNW
CZ-2D R/B 4.1 07:40:21 10° NNW 07:42:21 20° NNW 07:42:21 20° NNW
Chandra Rocket (1) 4.1 07:18:42 10° WNW 07:45:59 75° SSW 07:52:21 10° ESE
ADEOS II 3.5 07:41:52 10° N 07:44:45 33° N 07:44:45 33° N
Centaur D-1A AC-32 4.2 07:51:58 30° ESE 07:51:58 30° ESE 07:57:10 10° E
Cosmos 2263 Rocket 2.8 07:54:29 52° NNE 07:54:29 52° NNE 07:58:44 10° NNE
SL-16 R/B 2.8 07:49:12 10° N 07:53:48 52° NNE 07:53:48 52° NNE
ATLAS CENTAUR R/B 4.0 07:57:40 17° NE 07:57:40 17° NE 07:58:38 10° NE
Iridium 4 Rocket 4.2 07:51:08 10° N 07:55:47 59° NNE 07:55:47 59° NNE
Cosmos 2344 3.5 08:04:50 63° WNW 08:05:12 64° WNW 08:12:33 10° NNE
Cosmos 2341 Rocket 4.0 08:06:43 71° ESE 08:06:55 72° E 08:13:08 10° N
CZ-3B R/B 3.8 08:05:06 58° SW 08:07:08 67° S 08:14:04 10° E
Nadezhda 3 Rocket 4.0 08:20:36 10° NNW 08:26:34 62° WNW 08:26:34 62° WNW
Aurora 2 Rocket 4.3 08:28:21 45° WSW 08:31:39 63° SSW 08:40:01 10° ESE
CZ-3 Stage 3 3.0 08:34:31 25° E 08:34:31 25° E 08:36:55 10° ENE
IRS-P3 4.0 08:30:49 10° N 08:36:09 76° WNW 08:36:17 75° W
IDEFIX/ARIANE 42P 3.4 08:32:34 10° N 08:36:25 35° NW 08:36:25 35° NW
Cosmos 1900 4.2 08:37:53 80° NW 08:37:53 80° NW 08:42:44 10° NNE
Cosmos 1400 Rocket 3.5 08:40:33 49° E 08:40:33 49° E 08:44:04 10° NNE
SL-16 R/B 4.4 08:45:15 14° WNW 08:45:15 14° WNW 08:46:22 10° NW
CZ-2C R/B 3.2 08:37:50 10° NNE 08:42:11 42° E 08:43:45 31° SE
Cosmos 1340 4.2 08:40:34 10° NNE 08:43:58 33° E 08:45:22 24° ESE
USA 215 3.4 08:39:36 10° NNE 08:46:03 63° NW 08:47:58 45° WSW
Meteor 1-12 Rocket 4.1 08:45:08 55° S 08:46:28 89° W 08:52:09 10° N
Cosmos 1626 4.4 08:45:17 10° NNE 08:48:13 22° E 08:51:08 10° SE
Atlas 2A Centaur Rocket 3.1 08:51:01 25° E 08:51:01 25° E 08:51:59 10° E
RUBIN 8/PSLV 4.5 08:47:57 10° N 08:52:22 73° WNW 08:52:28 73° W
Cosmos 1674 3.2 08:50:39 10° N 08:54:25 56° E 08:55:17 44° SE
CZ-4C R/B 4.0 09:04:26 41° WNW 09:04:26 41° WNW 09:07:33 10° NNW
Cosmos 1844 Rocket 2.9 09:03:44 29° S 09:06:41 70° ESE 09:12:18 10° NNE
ASTRO E2 3.7 09:05:37 31° NW 09:06:50 41° N 09:10:36 10° ENE
CZ-4B R/B 3.6 09:05:16 10° N 09:09:52 47° WNW 09:10:43 42° WSW
Cosmos 44 4.2 09:07:48 10° NNW 09:12:43 49° ENE 09:17:18 10° SE
Cosmos 1025 Rocket 4.1 09:09:06 10° N 09:13:13 44° E 09:17:21 10° SSE
ARIANE 5 R/B 3.2 09:09:51 10° N 09:14:35 37° WNW 09:15:41 33° W
ATLAS V CENTAUR R/B 4.1 09:18:31 23° S 09:18:31 23° S 09:19:59 10° SE
Milstar 3 2.7 09:15:44 29° WSW 09:19:29 82° SSE 09:26:27 10° E
Okean 2 Rocket 3.1 09:17:13 25° S 09:19:49 88° E 09:24:20 10° N
DNEPR-1 R/B 4.3 09:17:10 24° SSW 09:21:00 77° ESE 09:26:07 10° NNE
FENGYUN 3A 3.7 09:16:24 10° NNE 09:21:50 85° ESE 09:26:10 16° S
Cosmos 1603 3.7 09:16:14 10° NNW 09:21:52 82° ENE 09:27:31 10° SSE
CZ-2D R/B 4.1 09:18:34 10° N 09:22:13 34° WNW 09:22:36 33° W
IUS-15 SRM-1 2.7 09:24:51 48° SSE 09:24:51 48° SSE 09:28:03 10° ESE
Sich 1 Rocket 3.8 09:24:30 35° SW 09:25:53 49° W 09:30:09 10° N
Cosmos 1805 4.1 09:26:33 30° W 09:26:35 30° W 09:30:02 10° NNW
Spot 4 Rocket 4.3 09:21:58 10° N 09:26:56 50° WNW 09:29:29 27° SW
Fermi 4.3 09:27:06 36° SW 09:27:41 38° SSW 09:31:32 10° SE
Cosmos 1867 3.8 09:23:58 20° SSW 09:27:45 69° ESE 09:33:10 10° NNE
CZ-2C R/B 2.6 09:25:19 10° N 09:29:00 66° WNW 09:30:40 31° SSW
GPS 2-18 Rocket1 3.8 09:31:29 30° SSW 09:32:02 32° S 09:35:27 10° ESE
Delta 142 3.9 09:29:33 15° W 09:34:33 88° NNE 09:39:14 10° E
CZ-3 R/B 3.6 09:15:06 22° WSW 09:37:21 67° SSE 09:45:48 10° E
Cosmos 2151 Rocket 3.5 09:35:27 17° SSW 09:38:46 70° W 09:43:10 10° N
Cosmos 1726 2.4 09:37:15 10° S 09:40:49 65° E 09:44:26 10° NNE
Cosmos 1346 Rocket 3.6 09:40:55 10° N 09:44:43 52° E 09:48:31 10° SSE
GEOS 3 Rocket 3.7 09:41:37 10° SSE 09:46:58 90° SW 09:52:20 10° NNW
Meteor 1-22 Rocket 4.2 09:41:42 10° SSW 09:47:35 71° W 09:53:15 10° N
SL-14 R/B 3.1 09:44:25 10° N 09:48:19 82° W 09:52:15 10° S
ALOS 2.7 09:48:23 10° N 09:52:49 44° WNW 09:56:46 13° SW
SL-08 R/B 4.2 09:50:42 11° SSW 09:54:45 29° W 09:59:02 10° NW
CZ-4C R/B 3.2 09:46:54 10° NW 09:54:47 59° WSW 10:03:17 10° S
Cosmos 1536 Rocket 3.9 09:51:16 10° N 09:55:39 71° E 10:00:00 10° SSE
Delta 128 3.8 09:51:46 11° W 09:56:09 78° N 10:01:24 10° E
Cosmos 1470 2.7 09:52:43 10° S 09:56:39 75° W 10:00:34 10° N
USA 281 3.9 09:52:13 10° SE 09:58:39 61° ENE 10:05:05 10° NNW
Meteor 2-10 4.1 09:57:06 10° SSW 10:02:02 56° W 10:07:05 10° N
X-37B 2.8 10:01:10 10° S 10:03:37 20° SE 10:06:04 10° E
Cosmos 1763 Rocket 3.5 09:59:31 10° NNW 10:04:50 83° WSW 10:10:04 10° SSE
Cosmos 1727 Rocket 4.5 10:04:34 10° NNW 10:10:18 40° W 10:16:06 10° SSW
Cosmos 1844 4.5 10:07:35 11° SW 10:12:23 33° WNW 10:17:23 10° N
USA 290 2.2 10:10:08 10° NNW 10:13:19 58° WSW 10:16:30 10° S
Cosmos 1934 Rocket 4.0 10:10:05 10° SSW 10:16:06 66° W 10:22:14 10° N
Cosmos 1484 Rocket 3.7 10:12:56 10° NNW 10:16:29 32° WNW 10:20:02 10° SW
Cosmos 1605 Rocket 4.3 10:11:17 10° S 10:17:39 75° E 10:23:59 10° N
Cosmos 1943 4.0 10:13:22 10° NW 10:18:07 28° WSW 10:22:53 10° SSW
CZ-2C R/B 4.2 10:18:06 10° NW 10:20:01 12° WNW 10:21:55 10° W
SL-24 R/B - RUBIN 2 3.6 10:18:24 10° NW 10:22:57 61° WSW 10:27:10 10° SSE
Cosmos 1626 4.1 10:21:34 10° WNW 10:23:06 12° W 10:24:38 10° WSW
CZ-3B R/B 2.5 10:14:12 10° W 10:23:08 83° S 10:27:05 10° E
Cosmos 1315 Rocket 4.2 10:21:02 10° SW 10:24:17 22° WNW 10:27:31 10° NNW
Okean 1 Rocket 3.5 10:20:30 10° SSW 10:24:38 42° W 10:28:49 10° N
